Regional Weather Roundup
Issued by NWS Jackson, KY

Home | Current Version | Previous Version | Graphics & Text | Print | Product List | Glossary On
Versions: 1 2 3 4 5 6 7 8 9 10 11 12 13 14 15 16 17 18 19 20 21 22 23 24 25 26 27 28 29 30 31 32 33 34 35 36 37 38 39 40 41 42 43 44 45 46 47 48 49 50
000
ASUS43 KJKL 252210
RWRJKL

EAST KENTUCKY HOURLY WEATHER ROUNDUP
NATIONAL WEATHER SERVICE JACKSON KY
500 PM EST THU DEC 25 2014

NOTE: "FAIR" INDICATES FEW OR NO CLOUDS BELOW 12,000 FEET WITH
NO SIGNIFICANT WEATHER AND/OR OBSTRUCTIONS TO VISIBILITY.

* THESE REPORTS ARE NOT UNDER NWS QUALITY CONTROL AND MAY NOT
  REPORT WEATHER SUCH AS PRECIPITATION AND FOG.

KYZ079-080-083-085-087-088-110-112-115-119-120-252300
...EASTERN KENTUCKY...

CITY           SKY/WX    TMP DP  RH WIND       PRES   REMARKS
JACKSON        MOCLDY    42  31  64 CALM      30.18R
LONDON         CLEAR     44  29  55 SW5       30.19R
SOMERSET*      PTCLDY    43  32  65 SW5       30.22R
MONTICELLO*    CLEAR     45  34  65 CALM      30.22R
MIDDLESBORO*   CLEAR     45  32  60 S3        30.20R
HARLAN APT*    CLEAR     45  32  61 CALM      30.18R
BIG SANDY*     CLEAR     42  32  66 W3        30.18R
MOREHEAD APT*  CLOUDY    41  30  65 SW8       30.20R
$$

KYZ035-036-041-042-044-050-067-078-099-252300
...CENTRAL KENTUCKY...

CITY           SKY/WX    TMP DP  RH WIND       PRES   REMARKS
MT STERLING*   CLOUDY    41  32  70 W6        30.19R
FLEMING/MASON* CLOUDY    40  32  74 SW9       30.18S WCI  33
DANVILLE*      MOCLDY    41  32  70 SW7       30.19R
RICHMOND*      MOCLDY    43  32  65 SW6       30.18R
LEXINGTON      PTCLDY    39  31  72 SW7       30.17R WCI  34
FRANKFORT      MOCLDY    41  31  67 S10       30.16R
$$

KYZ091>093-OHZ055-061-077-WVZ005-015-034-035-042-252300
...SOUTHERN OHIO/WEST VIRGINIA...

CITY           SKY/WX    TMP DP  RH WIND       PRES   REMARKS
COVINGTON      CLOUDY    41  30  65 SW7       30.15R
COLUMBUS       CLOUDY    39  30  70 SW10      30.14R WCI  32
DAYTON         CLOUDY    40  32  73 SW9       30.14R WCI  34
WILMINGTON     CLOUDY    38  31  76 SW10      30.13R WCI  31
HUNTINGTON     MOCLDY    40  30  67 SW8       30.18R WCI  34
CHARLESTON     MOCLDY    42  31  64 VRB3      30.16R
PINEVILLE*     CLEAR     39  36  87 MISG      30.19R
BECKLEY        PTCLDY    38  29  70 NW5       30.10F WCI  34
BLUEFIELD      CLEAR     40  26  57 NW7       30.11S
$$

VAZ002-007-008-TNZ017-027-036-066-071-252300
...SOUTHWEST VIRGINIA/EAST TENNESSEE...

CITY           SKY/WX    TMP DP  RH WIND       PRES   REMARKS
WISE*          CLEAR     41  30  65 W6        30.15R
JONESVILLE*    CLEAR     45  32  61 CALM      30.21R
ABINGDON*      CLEAR     44  31  60 W7        30.15R
BRISTOL        CLEAR     45  31  58 W6        30.18R
KNOXVILLE      CLEAR     48  34  58 SW5       30.18S
OAK RIDGE      CLEAR     48  33  56 S3        30.21R
CROSSVILLE     CLEAR     44  33  65 VRB5      30.19R
NASHVILLE      PTCLDY    49  35  58 S8        30.21R
$$

...KEY TO REMARKS...
VSB - VISIBILITY IN MILES
WCI - WIND CHILL INDEX
HX  - HEAT INDEX

$$


USA.gov is the U.S. government's official web portal to all federal, state and local government web resources and services.